Location: Cold Norton
(51.6667°N, 0.6667°E)
Time: 07:07:35
(UTC+00:00)

Cosmos 2084 Rocket - Pass Details

Date: 18 November 2025
Orbit: 548 x 566 km, 62.8° (Epoch: 12 December)

Event Time Altitude Azimuth Distance (km) Brightness Sun altitude
Rises 16:32:51 0° 219° (SW) 2,733 8.2 -4.9°
Reaches altitude 10° 16:35:03 10° 218° (SW) 1,845 7.2 -5.2°
Maximum altitude 16:39:12 75° 133° (SE) 588 3.4 -5.8°
Drops below altitude 10° 16:43:24 10° 49° (NE) 1,867 5.4 -6.4°
Enters shadow 16:44:02 - 48° (NE) 2,123 5.7 -6.5°
